This demonstration page uses our WeatherBlox Daily Observations layout. Learn more.

Left ArrowRight Arrow

40.92945, -100.16068

Hourly Observations for May 9, 2021

Temp ( °F °C ) Dew Point ( °F °C ) Humidity (%) Winds ( mph kmh ) Pressure ( in mb ) Visibility ( mi km ) Precip ( " mm )
12:15 am 00:15 Cloudy 44 6.5 38 3.4 81 81 N 13 20 29.94 1014 10 16.0934 N/A
12:35 am 00:35 Cloudy 44 6.5 38 3.3 80 80 N 16 26 29.93 1014 10 16.0934 N/A
12:55 am 00:55 Cloudy 43 6.2 38 3.4 82 82 N 20 31 29.95 1014 10 16.0934 N/A
1:15 am 01:15 Cloudy 43 6.2 38 3.5 83 83 N 18 30 29.96 1014 10 16.0934 N/A
1:35 am 01:35 Cloudy 43 6 39 3.7 85 85 N 18 30 29.96 1015 10 16.0934 N/A
1:55 am 01:55 Cloudy 42 5.8 39 4 88 88 N 20 31 29.97 1015 10 16.0934 N/A
2:15 am 02:15 Cloudy 43 6 39 3.7 85 85 N 15 24 29.99 1016 10 16.0934 N/A
2:35 am 02:35 Cloudy 43 6 38 3.6 85 85 N 17 28 29.98 1015 10 16.0934 N/A
2:55 am 02:55 Cloudy 43 6 38 3.5 84 84 N 16 26 29.99 1016 10 16.0934 N/A
3:15 am 03:15 Cloudy 43 6 38 3.5 84 84 N 17 28 29.99 1016 10 16.0934 N/A
3:35 am 03:35 Cloudy 42 5.8 38 3.4 85 85 N 16 26 30 1016 10 16.0934 N/A
3:55 am 03:55 Cloudy 43 6 38 3.3 83 83 N 17 28 30.01 1016 10 16.0934 N/A
4:15 am 04:15 Cloudy 42 5.7 38 3.3 85 85 N 15 24 30.02 1017 10 16.0934 N/A
4:35 am 04:35 Cloudy 42 5.6 38 3.6 87 87 N 14 22 30.02 1017 10 16.0934 N/A
4:55 am 04:55 Cloudy 42 5.6 39 3.9 89 89 N 10 17 30.03 1017 10 16.0934 N/A
5:15 am 05:15 Cloudy 42 5.7 38 3.6 87 87 N 14 22 30.03 1017 10 16.0934 N/A
5:35 am 05:35 Cloudy 42 5.8 38 3.6 86 86 N 15 24 30.04 1017 10 16.0934 N/A
5:55 am 05:55 Cloudy 42 5.8 38 3.2 84 84 N 14 22 30.03 1017 10 16.0934 N/A
6:15 am 06:15 Cloudy 42 5.7 38 3.2 84 84 N 14 22 30.04 1017 10 16.0934 N/A
6:35 am 06:35 Cloudy 42 5.7 38 3.1 84 84 N 18 30 30.05 1018 10 16.0934 N/A
6:55 am 06:55 Cloudy 42 5.6 37 3 84 84 N 17 28 30.07 1018 10 16.0934 N/A
7:15 am 07:15 Cloudy 42 5.5 37 3 84 84 N 15 24 30.08 1019 10 16.0934 N/A
7:35 am 07:35 Cloudy 41 5.1 37 2.8 85 85 N 15 24 30.1 1019 10 16.0934 N/A
7:55 am 07:55 Cloudy 42 5.3 37 2.7 84 84 N 16 26 30.11 1019 10 16.0934 N/A
8:15 am 08:15 Cloudy 41 5.1 37 3 86 86 NNE 14 22 30.12 1020 10 16.0934 N/A
8:35 am 08:35 Cloudy 41 5.1 37 2.8 85 85 N 15 24 30.13 1020 10 16.0934 N/A
8:55 am 08:55 Cloudy 42 5.3 37 2.7 84 84 N 17 28 30.13 1020 10 16.0934 N/A
9:15 am 09:15 Cloudy 42 5.5 37 2.7 82 82 N 14 22 30.13 1020 10 16.0934 N/A
9:35 am 09:35 Cloudy 42 5.6 37 2.7 82 82 N 15 24 30.14 1021 10 16.0934 N/A
9:55 am 09:55 Cloudy 43 6 37 2.7 80 80 N 14 22 30.15 1021 10 16.0934 N/A
10:15 am 10:15 Cloudy 43 6.1 37 2.8 80 80 NNE 13 20 30.15 1021 10 16.0934 N/A
10:35 am 10:35 Cloudy 43 6.3 37 2.6 77 77 N 10 17 30.17 1022 10 16.0934 N/A
10:55 am 10:55 Cloudy 44 6.4 37 2.6 77 77 N 12 19 30.17 1022 10 16.0934 N/A
11:15 am 11:15 Cloudy 44 6.9 37 2.7 75 75 N 9 15 30.16 1021 10 16.0934 N/A
11:35 am 11:35 Cloudy 45 7.4 38 3.1 74 74 NNE 12 19 30.16 1021 10 16.0934 N/A
11:55 am 11:55 Cloudy 45 7.2 37 3 75 75 N 8 13 30.16 1021 10 16.0934 N/A
12:15 pm 12:15 Cloudy 46 7.7 37 2.6 70 70 NE 10 17 30.14 1021 10 16.0934 N/A
12:35 pm 12:35 Cloudy 47 8.2 37 3 70 70 NE 12 19 30.14 1021 10 16.0934 N/A
12:55 pm 12:55 Cloudy 47 8.4 37 2.8 68 68 NNE 9 15 30.14 1021 10 16.0934 N/A
1:15 pm 13:15 Cloudy 47 8.3 37 2.8 69 69 NNE 7 11 30.15 1021 10 16.0934 N/A
1:35 pm 13:35 Cloudy 48 8.9 37 2.7 65 65 NNE 7 11 30.13 1020 10 16.0934 N/A
1:55 pm 13:55 Cloudy 48 9 37 2.8 65 65 ENE 6 9 30.13 1020 10 16.0934 N/A
2:15 pm 14:15 Cloudy 48 8.8 37 2.8 66 66 E 8 13 30.13 1020 10 16.0934 N/A
2:35 pm 14:35 Cloudy 48 9 37 2.7 65 65 ENE 7 11 30.13 1020 10 16.0934 N/A
2:55 pm 14:55 Cloudy 49 9.3 37 3 65 65 NE 10 17 30.12 1020 10 16.0934 N/A
3:15 pm 15:15 Cloudy 50 9.8 36 2.4 60 60 N 10 17 30.11 1020 10 16.0934 N/A
3:35 pm 15:35 Cloudy 50 10.1 37 2.5 60 60 NNE 12 19 30.1 1019 10 16.0934 N/A
3:55 pm 15:55 Cloudy 52 10.9 36 2.3 56 56 NE 10 17 30.08 1019 10 16.0934 N/A
4:35 pm 16:35 Mostly Cloudy 53 11.4 35 1.5 51 51 N 12 19 30.08 1019 10 16.0934 N/A
4:55 pm 16:55 Mostly Cloudy 53 11.5 35 1.4 50 50 NE 12 19 30.08 1019 10 16.0934 N/A
5:15 pm 17:15 Mostly Cloudy 52 11.2 36 2.1 54 54 ENE 8 13 30.09 1019 10 16.0934 N/A
5:35 pm 17:35 Mostly Cloudy 52 11.1 36 2 54 54 NNE 9 15 30.08 1019 10 16.0934 N/A
5:55 pm 17:55 Mostly Cloudy 51 10.8 35 1.4 53 53 NE 3 6 30.09 1019 10 16.0934 N/A
6:15 pm 18:15 Cloudy 51 10.8 35 1.5 53 53 NE 5 7 30.1 1019 10 16.0934 N/A
6:35 pm 18:35 Mostly Cloudy 53 11.5 36 2 52 52 ENE 8 13 30.1 1019 10 16.0934 N/A
6:55 pm 18:55 Cloudy 52 10.9 36 2 54 54 NE 7 11 30.1 1019 10 16.0934 N/A
7:15 pm 19:15 Partly Cloudy 51 10.5 36 2.3 57 57 E 10 17 30.11 1020 10 16.0934 N/A
7:35 pm 19:35 Sunny 50 10.2 36 2.3 58 58 ENE 8 13 30.11 1020 10 16.0934 N/A
7:55 pm 19:55 Sunny 48 9.1 37 2.6 64 64 ENE 6 9 30.12 1020 10 16.0934 N/A
8:15 pm 20:15 Sunny 47 8.6 37 2.5 66 66 E 7 11 30.13 1020 10 16.0934 N/A
8:35 pm 20:35 Sunny 47 8.4 36 2.1 65 65 E 7 11 30.14 1021 10 16.0934 N/A
8:55 pm 20:55 Clear 47 8.1 36 2 66 66 ESE 7 11 30.15 1021 10 16.0934 N/A
9:15 pm 21:15 Clear 46 7.8 36 2 67 67 E 6 9 30.16 1021 10 16.0934 N/A
9:35 pm 21:35 Clear 46 7.6 35 1.9 67 67 E 6 9 30.17 1022 10 16.0934 N/A
9:55 pm 21:55 Clear 44 6.6 36 2 73 73 E 5 7 30.2 1023 10 16.0934 N/A
10:15 pm 22:15 Clear 44 6.9 36 2 71 71 ESE 5 7 30.21 1023 10 16.0934 N/A
10:35 pm 22:35 Clear 43 6.1 35 1.8 74 74 SE 5 7 30.22 1023 10 16.0934 N/A
10:55 pm 22:55 Clear 42 5.7 35 1.7 76 76 ESE 3 6 30.22 1023 10 16.0934 N/A
11:15 pm 23:15 Clear 42 5.5 35 1.8 77 77 N N/A 30.22 1023 10 16.0934 N/A
11:35 pm 23:35 Clear 42 5.5 35 1.9 78 78 ESE 3 6 30.22 1023 10 16.0934 N/A
11:55 pm 23:55 Clear 42 5.3 36 2 80 80 N N/A 30.23 1024 10 16.0934 N/A

Powered by AerisWeather